Flag for U.S.A. Weather past 2 weeks in Irving, Texas, U.S.A.

Now
71 °F

Scattered clouds.


Feels Like: 77 °F
Forecast: 54 / 74 °F
Wind: 10 mph from Southeast

Location: Dallas / Fort Worth International Airport

Current Time: Apr 21, 2015 at 5:06:47 PM

Latest Report: Apr 21, 2015 at 3:53 PM


Visibility: 10 mi

Pressure: 29.90 "Hg

Humidity: 55%

Dew point: 54 °F

Location of IrvingLocation

Historic Weather in Irving — Graph

°F

Irving temperature yesterday

Maximum temperature yesterday: 68 °F (at 2:53 PM)
Minimum temperature yesterday: 48 °F (at 6:53 AM)
Average temperature yesterday: 60 °F

Past Weeks' High & Low Weather Summary

 TemperatureHumidityPressure
High82 °F (Apr 9, 4:53 PM)100% (Apr 13, 8:00 AM)30.20 "Hg (Apr 13, 8:00 AM)
Low48 °F (Apr 20, 6:53 AM)32% (Apr 20, 2:53 PM)29.69 "Hg (Apr 19, 6:53 AM)
Average66 °F74%29.91 "Hg
* Reported Apr 6 2:53 PM — Apr 21 2:53 PM, Irving, Weather by CustomWeather, © 2015

Note: Actual official high and low records may vary slightly from our data, if they occured in-between our weather recording intervals... More about our weather records

Advertising

Irving weather history for previous 24 hours

 ConditionsComfort  
Time TempWeatherWind HumidityBarometerVisibility
2:53 PM
Tue, Apr 21
70 °FPartly sunny.14 mph55%29.93 "Hg10 mi
1:53 PM68 °FPartly sunny.13 mph59%29.95 "Hg10 mi
12:53 PM65 °FPartly sunny.8 mph61%29.99 "Hg10 mi
11:53 AM61 °FPartly sunny.8 mph67%30.01 "Hg10 mi
10:53 AM59 °FLight rain. Partly sunny.9 mph81%30.02 "Hg10 mi
9:53 AM60 °FPartly sunny.No wind65%30.01 "Hg10 mi
8:53 AM56 °FBroken clouds.6 mph77%29.98 "Hg10 mi
8:03 AM55 °FThunderstorms. Partly sunny.7 mph77%29.99 "Hg10 mi
7:53 AM56 °FLight rain. Mostly cloudy.6 mph72%29.98 "Hg10 mi
6:53 AM55 °FPassing clouds.3 mph67%29.96 "Hg10 mi
5:53 AM51 °FPassing clouds.10 mph77%29.95 "Hg10 mi
4:53 AM53 °FPassing clouds.5 mph69%29.97 "Hg10 mi
3:53 AM54 °FPassing clouds.No wind69%29.98 "Hg10 mi
2:53 AM53 °FPassing clouds.6 mph72%29.98 "Hg10 mi
1:53 AM55 °FPassing clouds.No wind67%29.98 "Hg10 mi
12:53 AM56 °FPassing clouds.3 mph62%30.00 "Hg10 mi
11:53 PM
Mon, Apr 20
58 °FPassing clouds.5 mph56%29.99 "Hg10 mi
10:53 PM58 °FPassing clouds.6 mph58%29.99 "Hg10 mi
9:53 PM61 °FPassing clouds.3 mph50%29.98 "Hg10 mi
8:53 PM62 °FScattered clouds.3 mph43%29.96 "Hg10 mi
7:53 PM65 °FPartly sunny.No wind39%29.94 "Hg10 mi
6:53 PM67 °FPartly sunny.No wind39%29.93 "Hg10 mi
5:53 PM68 °FPartly sunny.6 mph38%29.93 "Hg10 mi
Weather by CustomWeather, © 2015

See weather overviewHow to use our weather pages